Stations météo

réclame
Mon MeteoGroup
Olbia/Costa Smeralda, Italie (16531): Température de l'air & dewpoint: 13.07.2018 21:00:00 - 19.07.2018 21:00:00 (CEST)Olbia/Costa Smeralda, Italie (16531): Vitesse du vent: 13.07.2018 21:00:00 - 19.07.2018 21:00:00 (CEST)Olbia/Costa Smeralda, Italie (16531): Direction du vent: 13.07.2018 21:00:00 - 19.07.2018 21:00:00 (CEST)Olbia/Costa Smeralda, Italie (16531): reduced air pressure: 13.07.2018 21:00:00 - 19.07.2018 21:00:00 (CEST)Olbia/Costa Smeralda, Italie (16531): visibility: 13.07.2018 21:00:00 - 19.07.2018 21:00:00 (CEST)Olbia/Costa Smeralda, Italie (16531): Quantités de précipitations: 13.07.2018 21:00:00 - 19.07.2018 21:00:00 (CEST)
Date & Time tt [°C] td [°C] ff [km/h] ff [knt] dd ppp [hPa] vv [km] rr [mm]
19.07.2018 21:00:00 28,0 18,0 9 5 E - 10 -
19.07.2018 20:00:00 29,5 18,0 13 7 E 1013,9 10 -
19.07.2018 19:00:00 31,0 18,0 15 8 E - 10 -
19.07.2018 18:00:00 31,0 18,0 15 8 E - 10 -
19.07.2018 17:00:00 31,8 17,8 16 9 ENE 1013,8 10 0,0
19.07.2018 16:00:00 33,0 15,0 18 10 ENE - 10 -
19.07.2018 15:00:00 33,0 16,0 21 11 ENE - 10 -
19.07.2018 14:00:00 32,9 14,8 18 10 ENE 1014,0 10 -
19.07.2018 13:00:00 32,0 17,0 18 10 ENE - 10 -
19.07.2018 12:00:00 32,0 16,0 9 5 NE - 10 -
19.07.2018 11:00:00 30,0 19,1 9 5 NE 1014,0 10 0,0
19.07.2018 10:00:00 29,0 15,0 8 4 NE - 10 -
19.07.2018 09:00:00 28,0 16,0 4 2 - - 10 -
19.07.2018 08:00:00 24,6 15,2 5 3 NW 1013,9 10 -
19.07.2018 07:00:00 22,0 17,0 4 2 SSW - 10 -
19.07.2018 06:00:00 23,0 17,0 2 1 - - 10 -
19.07.2018 05:00:00 22,3 16,8 2 1 - 1013,8 10 0,0
19.07.2018 04:00:00 21,0 17,0 4 2 NNE - 10 -
19.07.2018 03:00:00 22,0 17,0 2 1 - - 10 -
19.07.2018 02:00:00 22,7 17,5 5 3 W 1014,6 10 -
19.07.2018 01:00:00 23,0 18,0 4 2 - - 10 -
19.07.2018 00:00:00 24,0 18,0 8 4 WSW - 10 -
18.07.2018 23:00:00 24,2 20,4 4 2 - 1014,0 10 0,0
18.07.2018 22:00:00 26,0 21,0 4 2 - - 10 -
18.07.2018 21:00:00 28,0 19,0 8 4 E - 10 -
18.07.2018 20:00:00 29,0 18,4 13 7 ENE 1013,8 10 -
18.07.2018 19:00:00 31,0 18,0 13 7 E - 10 -
18.07.2018 18:00:00 32,0 19,0 15 8 ENE - 10 -
18.07.2018 17:00:00 31,7 19,6 13 7 ENE 1014,8 10 0,0
18.07.2018 16:00:00 31,0 20,0 18 10 ENE - 10 -
18.07.2018 15:00:00 31,0 19,0 18 10 E - 10 -
18.07.2018 14:00:00 31,6 19,5 21 11 ENE 1015,4 10 -
18.07.2018 13:00:00 31,0 19,0 22 12 NE - 10 -
18.07.2018 12:00:00 32,0 17,0 11 6 ENE - 10 -
18.07.2018 11:00:00 31,4 17,3 8 4 SSW 1015,9 10 0,0
18.07.2018 10:00:00 29,0 17,0 13 7 SW - 10 -
18.07.2018 09:00:00 26,0 17,0 22 12 SW - 10 -
18.07.2018 08:00:00 25,1 17,4 18 10 SW 1015,7 21 -
18.07.2018 07:00:00 23,0 17,0 21 11 WSW - 10 -
18.07.2018 06:00:00 - - - - - - - -
18.07.2018 05:00:00 - - - - - - - -
18.07.2018 04:00:00 - - - - - - - -
18.07.2018 03:00:00 23,0 18,0 31 17 SW - 10 -
18.07.2018 02:00:00 23,1 18,6 28 15 SW 1015,1 10 -
18.07.2018 01:00:00 24,0 19,0 24 13 WSW - 10 -
18.07.2018 00:00:00 25,0 19,0 26 14 SW - 10 -
17.07.2018 23:00:00 25,1 18,4 21 11 WSW 1015,1 10 0,0
17.07.2018 22:00:00 26,0 17,0 9 5 SW - 10 -
17.07.2018 21:00:00 28,0 15,0 9 5 W - 10 -
17.07.2018 20:00:00 30,1 15,7 21 11 W 1013,5 10 -
17.07.2018 19:00:00 32,0 15,0 15 8 W - 10 -
17.07.2018 18:00:00 32,0 14,0 26 14 W - 10 -
17.07.2018 17:00:00 33,0 14,0 29 16 W 1012,8 10 0,0
17.07.2018 16:00:00 33,0 14,0 21 11 W - 10 -
17.07.2018 15:00:00 33,0 15,0 21 11 W - 10 -
17.07.2018 14:00:00 32,8 15,6 22 12 WNW 1012,9 10 -
17.07.2018 13:00:00 32,0 16,0 26 14 WNW - 10 -
17.07.2018 12:00:00 31,0 17,0 24 13 W - 10 -
17.07.2018 11:00:00 29,9 17,5 31 17 W 1012,6 10 0,0
17.07.2018 10:00:00 28,0 18,0 34 18 W - 10 -
17.07.2018 09:00:00 27,0 18,0 34 18 WSW - 10 -
17.07.2018 08:00:00 25,8 19,6 18 10 WNW 1012,4 10 -
17.07.2018 07:00:00 24,0 18,0 9 5 NW - 10 -
17.07.2018 06:00:00 23,0 18,0 8 4 WNW - 10 -
17.07.2018 05:00:00 24,0 17,0 28 15 W - 10 -
17.07.2018 04:00:00 24,0 17,0 41 22 W - 10 -
17.07.2018 03:00:00 24,0 17,0 41 22 W - 10 -
17.07.2018 02:00:00 24,1 17,5 22 12 SW 1010,7 10 -
17.07.2018 01:00:00 25,0 17,0 24 13 SW - 10 -
17.07.2018 00:00:00 25,0 18,0 28 15 SW - 10 -
16.07.2018 23:00:00 26,5 17,3 28 15 SW 1011,6 10 0,0
16.07.2018 22:00:00 28,0 19,0 16 9 SSW - 10 -
16.07.2018 21:00:00 29,0 18,0 22 12 SW - 10 -
16.07.2018 20:00:00 29,6 18,0 26 14 SW 1010,9 10 -
16.07.2018 19:00:00 31,0 17,0 42 23 WSW - 10 -
16.07.2018 18:00:00 - - - - - - - -
16.07.2018 17:00:00 - - - - - - - -
16.07.2018 16:00:00 33,0 19,0 21 11 ESE - 10 -
16.07.2018 15:00:00 31,0 17,0 16 9 SSE - 10 -
16.07.2018 14:00:00 28,4 20,6 13 7 SSW 1011,7 10 -
16.07.2018 13:00:00 29,0 18,0 11 6 NNE - 10 -
16.07.2018 12:00:00 28,0 20,0 5 3 ESE - 10 -
16.07.2018 11:00:00 29,5 18,4 4 2 - 1014,8 10 0,0
16.07.2018 10:00:00 28,0 19,0 4 2 - - 10 -
16.07.2018 09:00:00 27,0 21,0 5 3 E - 10 -
16.07.2018 08:00:00 26,0 21,1 8 4 S 1013,2 10 -
16.07.2018 07:00:00 24,0 20,0 8 4 S - 10 -
16.07.2018 06:00:00 24,0 20,0 8 4 E - 10 -
16.07.2018 05:00:00 23,5 19,4 8 4 WSW 1014,1 10 0,0
16.07.2018 04:00:00 23,0 20,0 8 4 SW - 10 -
16.07.2018 03:00:00 23,0 20,0 4 2 - - 10 -
16.07.2018 02:00:00 23,3 20,2 4 2 - 1013,6 10 -
16.07.2018 01:00:00 25,0 21,0 9 5 NW - 10 -
16.07.2018 00:00:00 25,0 21,0 4 2 - - 10 -
15.07.2018 23:00:00 25,6 20,7 4 2 - 1015,1 10 0,0
15.07.2018 22:00:00 27,0 21,0 2 1 - - 10 -
15.07.2018 21:00:00 29,0 21,0 8 4 E - 10 -
15.07.2018 20:00:00 30,3 21,0 11 6 E 1013,6 10 -
15.07.2018 19:00:00 33,0 21,0 13 7 ENE - 10 -
15.07.2018 18:00:00 34,0 21,0 13 7 ENE - 10 -
15.07.2018 17:00:00 33,8 20,3 21 11 E 1014,1 10 0,0
15.07.2018 16:00:00 36,0 20,0 18 10 ENE - 10 -
15.07.2018 15:00:00 36,0 19,0 13 7 - - 10 -
15.07.2018 14:00:00 36,7 15,8 9 5 NW 1014,1 10 -
15.07.2018 13:00:00 36,0 15,0 16 9 WNW - 10 -
15.07.2018 12:00:00 34,0 18,0 16 9 W - 10 -
15.07.2018 11:00:00 32,7 18,6 15 8 WNW 1014,5 10 0,0
15.07.2018 10:00:00 30,0 21,0 24 13 WSW - 10 -
15.07.2018 09:00:00 - - - - - - - -
15.07.2018 08:00:00 27,2 21,4 21 11 WSW 1014,4 10 -
15.07.2018 07:00:00 26,0 22,0 16 9 WSW - 10 -
15.07.2018 06:00:00 - - - - - - - -
15.07.2018 05:00:00 25,0 21,5 9 5 WSW 1013,8 - 0,0
15.07.2018 04:00:00 - - - - - - - -
15.07.2018 03:00:00 24,0 21,0 4 2 - - 10 -
15.07.2018 02:00:00 25,7 21,5 5 3 NNW 1014,0 10 -
15.07.2018 01:00:00 26,0 22,0 2 1 - - 10 -
15.07.2018 00:00:00 26,0 22,0 2 1 - - 10 -
14.07.2018 23:00:00 26,0 22,6 4 2 - 1014,0 10 0,0
14.07.2018 22:00:00 27,0 23,0 5 3 ENE - 10 -
14.07.2018 21:00:00 28,0 22,0 5 3 NE - 10 -
14.07.2018 20:00:00 30,2 21,4 9 5 ENE 1013,0 10 -
14.07.2018 19:00:00 32,0 20,0 13 7 E - 10 -
14.07.2018 18:00:00 32,0 20,0 26 14 E - 10 -
14.07.2018 17:00:00 31,7 21,2 24 13 ESE 1013,1 10 0,0
14.07.2018 16:00:00 34,0 16,0 26 14 E - 10 -
14.07.2018 15:00:00 33,0 18,0 24 13 E - 10 -
14.07.2018 14:00:00 33,1 17,8 24 13 E 1014,8 10 -
14.07.2018 13:00:00 32,0 18,0 28 15 E - 10 -
14.07.2018 12:00:00 31,0 20,0 21 11 E - 10 -
14.07.2018 11:00:00 29,7 22,3 24 13 E 1016,2 10 0,0
14.07.2018 10:00:00 28,0 23,0 18 10 E - 10 -
14.07.2018 09:00:00 27,0 22,0 4 2 - - 10 -
14.07.2018 08:00:00 23,3 21,4 2 1 - 1016,5 10 -
14.07.2018 07:00:00 21,0 20,0 2 1 - - 10 -
14.07.2018 06:00:00 21,0 20,0 2 1 - - 10 -
14.07.2018 05:00:00 21,0 19,8 5 3 SW 1016,3 10 0,0
14.07.2018 04:00:00 22,0 21,0 2 1 - - 10 -
14.07.2018 03:00:00 22,0 21,0 2 1 - - 10 -
14.07.2018 02:00:00 22,9 21,4 5 3 WSW 1016,2 10 -
14.07.2018 01:00:00 24,0 22,0 8 4 WNW - 10 -
14.07.2018 00:00:00 24,0 22,0 4 2 - - 10 -
13.07.2018 23:00:00 24,1 22,2 4 2 S 1017,0 21 0,0
13.07.2018 22:00:00 26,0 23,0 5 3 E - 10 -
13.07.2018 21:00:00 27,0 23,0 13 7 NE - 10 -

tt = Température de l'air
td = dewpoint
ff = Vitesse du vent
dd = Direction du vent
ppp = reduced air pressure
vv = visibility
rr = Quantités de précipitations

stations d'obs. à proximité